GW6805 Weather Reports


Display with metric or nautical units.
time (UTC)temp
F
wind
direction
speed
MPH
gust
MPH
rain 1hr
in
rain 24hr
in
rain mn
in
humidity
%
barometer
mb
20260508100904 65 315 3.0 12.0 0.01 0.52 0.41 92
20260508100115 65 94 5.0 12.0 0.01 0.52 0.35 92 1014.6
20260508100004 65 180 8.0 9.0 0.02 0.52 0.41 95
20260508095404 65 180 8.0 9.0 0.02 0.52 0.41 95
20260508094606 64 88 4.0 9.0 0.02 0.52 0.35 95 1014.9
20260508094505 62 270 2.0 6.0 0.02 0.52 0.41 95
20260508093604 62 270 2.0 6.0 0.02 0.52 0.41 95
20260508093026 62 92 3.0 6.0 0.02 0.52 0.35 95 1014.9
20260508092704 62 202 2.0 6.0 0.09 0.52 0.41 94
20260508091825 62 202 2.0 6.0 0.09 0.52 0.41 94
20260508091507 61 153 1.0 6.0 0.09 0.52 0.35 94 1015.0
20260508090904 62 180 2.0 3.0 0.32 0.51 0.40 94
20260508090116 61 40 2.0 3.0 0.32 0.51 0.35 94 1014.8
20260508090005 62 180 3.0 4.0 0.32 0.50 0.39 93
20260508085427 62 180 3.0 4.0 0.32 0.50 0.39 93
20260508084549 61 40 3.0 4.0 0.32 0.50 0.34 93 1014.4
20260508084504 62 180 3.0 6.0 0.32 0.50 0.39 94
20260508083604 62 180 3.0 6.0 0.32 0.50 0.39 94
20260508083016 61 40 3.0 6.0 0.32 0.50 0.34 94 1014.5
20260508082704 61 337 3.0 5.0 0.25 0.43 0.32 93
20260508081825 61 337 3.0 5.0 0.25 0.43 0.32 93
20260508081616 61 207 1.0 5.0 0.25 0.43 0.27 93 1014.5
20260508080904 62 22 3.0 3.0 0.01 0.19 0.08 93
20260508080056 61 49 1.0 3.0 0.01 0.19 0.02 93 1014.4
20260508080004 62 337 5.0 9.0 0.00 0.18 0.07 93
20260508075404 62 337 5.0 9.0 0.00 0.18 0.07 93
20260508074527 61 47 4.0 9.0 0.00 0.18 0.02 93 1014.2
20260508074525 62 225 4.0 10.0 0.00 0.18 0.07 94
20260508073604 62 225 4.0 10.0 0.00 0.18 0.07 94
20260508073005 61 42 4.0 10.0 0.00 0.18 0.02 94 1014.1
20260508072704 61 45 4.0 9.0 0.00 0.18 0.07 95
20260508071804 61 45 4.0 9.0 0.00 0.18 0.07 95
20260508071550 60 50 3.0 9.0 0.00 0.18 0.02 95 1014.1
20260508070905 60 247 4.0 10.0 0.00 0.18 0.07 95
20260508070005 60 22 2.0 8.0 0.00 0.18 0.07 95
20260508065405 60 22 2.0 8.0 0.00 0.18 0.07 95
20260508064612 59 49 3.0 8.0 0.00 0.18 0.02 95 1014.0
20260508064504 60 157 4.0 7.0 0.00 0.18 0.07 95
20260508063604 60 157 4.0 7.0 0.00 0.18 0.07 95
20260508063012 59 87 3.0 7.0 0.00 0.18 0.02 95 1013.8
20260508062704 60 337 3.0 9.0 0.00 0.18 0.07 95
20260508061804 60 337 3.0 9.0 0.00 0.18 0.07 95
20260508061545 59 79 4.0 9.0 0.00 0.18 0.02 95 1013.6
20260508060905 59 67 6.0 8.0 0.00 0.18 0.07 96
20260508060015 59 67 4.0 8.0 0.00 0.18 0.02 96 1013.7
20260508060006 59 135 4.0 8.0 0.00 0.18 0.07 96
20260508055404 59 135 4.0 8.0 0.00 0.18 0.07 96
20260508054611 59 54 3.0 8.0 0.00 0.18 0.02 96 1013.5
20260508054504 59 225 1.0 3.0 0.00 0.18 0.07 96
20260508053604 59 225 1.0 3.0 0.00 0.18 0.07 96
20260508053044 59 42 1.0 3.0 0.00 0.18 0.02 96 1013.2
20260508052704 58 225 1.0 3.0 0.00 0.18 0.07 96
20260508051804 58 225 1.0 3.0 0.00 0.18 0.07 96
20260508051516 58 42 1.0 3.0 0.00 0.18 0.02 96 1012.8
20260508050925 58 225 1.0 3.0 0.00 0.18 0.07 96
20260508050046 57 42 1.0 3.0 0.00 0.18 0.02 96 1012.6
20260508050006 57 225 4.0 4.0 0.00 0.18 0.07 96
20260508045404 57 225 4.0 4.0 0.00 0.18 0.07 96
20260508044602 57 42 2.0 4.0 0.00 0.18 0.02 96 1012.4
20260508044505 57 225 2.0 3.0 0.00 0.18 0.07 96
20260508043605 57 225 2.0 3.0 0.00 0.18 0.07 96
20260508043005 57 42 2.0 3.0 0.00 0.18 0.02 96 1012.4
20260508042705 58 225 3.0 4.0 0.00 0.18 0.07 95
20260508041804 58 225 3.0 4.0 0.00 0.18 0.07 95
20260508041543 57 42 2.0 4.0 0.00 0.18 0.02 95 1012.3
20260508040905 58 225 2.0 2.0 0.00 0.18 0.07 95
20260508040110 58 42 0.0 2.0 0.00 0.18 0.02 95 1012.2
20260508040005 58 225 1.0 4.0 0.00 0.18 0.07 96
20260508035404 58 225 1.0 4.0 0.00 0.18 0.07 96
20260508034549 58 42 1.0 4.0 0.00 0.18 0.02 96 1012.0
20260508034504 59 292 3.0 7.0 0.00 0.18 0.07 95
20260508033625 59 292 3.0 7.0 0.00 0.18 0.07 95
20260508033011 58 45 3.0 7.0 0.00 0.18 0.02 95 1012.1
20260508032704 59 292 4.0 6.0 0.00 0.18 0.07 96
20260508031804 59 292 4.0 6.0 0.00 0.18 0.07 96
20260508031609 59 45 3.0 6.0 0.00 0.18 0.02 96 1012.3
20260508030925 59 315 3.0 5.0 0.00 0.18 0.07 96
20260508030005 59 315 3.0 4.0 0.00 0.18 0.07 96
20260508025425 59 315 3.0 4.0 0.00 0.18 0.07 96
20260508024601 58 46 3.0 4.0 0.00 0.18 0.02 96 1012.4
20260508024525 59 337 1.0 3.0 0.00 0.18 0.07 96
20260508023604 59 337 1.0 3.0 0.00 0.18 0.07 96
20260508023013 58 47 1.0 3.0 0.00 0.18 0.02 96 1012.4
20260508022725 59 337 0.0 5.0 0.00 0.18 0.07 96
20260508021804 59 337 0.0 5.0 0.00 0.18 0.07 96
20260508021616 58 47 1.0 5.0 0.00 0.18 0.02 96 1012.4
20260508020906 59 270 2.0 7.0 0.00 0.18 0.07 95
20260508020115 58 44 3.0 7.0 0.00 0.18 0.02 95 1012.2
20260508020004 59 202 3.0 5.0 0.00 0.18 0.07 95
20260508015404 59 202 3.0 5.0 0.00 0.18 0.07 95
20260508014551 58 41 3.0 5.0 0.00 0.18 0.02 95 1012.4
20260508014504 59 67 4.0 6.0 0.00 0.18 0.07 95
20260508013604 59 67 4.0 6.0 0.00 0.18 0.07 95
20260508013018 58 35 4.0 6.0 0.00 0.18 0.02 95 1012.4
20260508012704 59 315 3.0 3.0 0.00 0.18 0.07 95
20260508011804 59 315 3.0 3.0 0.00 0.18 0.07 95
20260508011505 58 46 2.0 3.0 0.00 0.18 0.02 95 1012.5
20260508010904 59 315 1.0 5.0 0.00 0.18 0.07 95
20260508010108 58 46 2.0 5.0 0.00 0.18 0.02 95 1012.7
20260508010004 59 315 3.0 6.0 0.01 0.18 0.07 95
20260508005404 59 315 3.0 6.0 0.01 0.18 0.07 95
20260508004559 58 46 3.0 6.0 0.01 0.18 0.02 95 1013.0
20260508004504 59 315 5.0 6.0 0.01 0.18 0.07 95
20260508003604 59 315 5.0 6.0 0.01 0.18 0.07 95
20260508003034 58 46 4.0 6.0 0.01 0.18 0.02 95 1013.1
20260508002726 59 225 5.0 8.0 0.01 0.18 0.07 95
20260508001804 59 225 5.0 8.0 0.01 0.18 0.07 95
20260508001526 58 58 3.0 8.0 0.01 0.18 0.02 95 1013.2
20260508000904 59 270 3.0 8.0 0.01 0.18 0.07 95
20260508000107 58 28 4.0 8.0 0.01 0.18 0.02 95 1013.2
20260508000004 59 112 4.0 4.0 0.00 0.17 0.06 95
20260507235404 59 112 4.0 4.0 0.00 0.17 0.06 95
20260507234555 58 37 2.0 4.0 0.00 0.17 0.01 95 1013.5
20260507234525 59 270 5.0 10.0 0.00 0.17 0.06 95
20260507233605 59 270 5.0 10.0 0.00 0.17 0.06 95
20260507233038 58 44 3.0 10.0 0.00 0.17 0.01 95 1013.7
20260507232704 59 270 6.0 10.0 0.00 0.17 0.06 95
20260507231804 59 270 6.0 10.0 0.00 0.17 0.06 95
20260507231512 58 44 5.0 10.0 0.00 0.17 0.01 95 1013.7
20260507230904 59 67 4.0 10.0 0.01 0.17 0.06 94
20260507230114 58 35 5.0 10.0 0.01 0.17 0.01 94 1013.9
20260507230005 59 112 4.0 11.0 0.06 0.17 0.06 94
20260507225405 59 112 4.0 11.0 0.06 0.17 0.06 94
20260507224555 58 37 6.0 11.0 0.06 0.17 0.01 94 1014.0
20260507224505 59 135 10.0 11.0 0.08 0.17 0.06 94
20260507223604 59 135 10.0 11.0 0.08 0.17 0.06 94
20260507223020 58 22 6.0 11.0 0.08 0.17 0.01 94 1014.1
20260507222704 59 270 10.0 11.0 0.13 0.17 0.06 94
20260507221804 59 270 10.0 11.0 0.13 0.17 0.06 94
20260507221615 58 12 9.0 11.0 0.13 0.17 0.01 94 1014.1
20260507220925 59 45 10.0 12.0 0.13 0.17 0.06 94
20260507220106 58 34 8.0 12.0 0.13 0.17 0.17 94 1014.1
20260507220026 59 247 3.0 12.0 0.07 0.11 0.00 93
20260507215404 59 247 3.0 12.0 0.07 0.11 0.11 93
20260507214549 58 75 6.0 12.0 0.07 0.11 0.11 93 1014.1
20260507214525 59 67 8.0 13.0 0.06 0.09 0.09 92
20260507213604 59 67 8.0 13.0 0.06 0.09 0.09 92
20260507213034 58 67 7.0 13.0 0.06 0.09 0.09 92 1014.0
20260507212705 59 360 6.0 11.0 0.00 0.04 0.04 92
20260507211804 59 360 6.0 11.0 0.00 0.04 0.04 92
20260507211507 58 32 7.0 11.0 0.00 0.04 0.04 92 1013.8
20260507210904 59 270 8.0 11.0 0.00 0.04 0.04 92
20260507210056 58 28 8.0 11.0 0.00 0.04 0.04 92 1013.7
20260507210026 59 45 6.0 11.0 0.00 0.04 0.04 92
20260507205405 59 45 6.0 11.0 0.00 0.04 0.04 92
20260507204518 58 34 7.0 11.0 0.00 0.04 0.04 92 1013.7
20260507204505 59 180 6.0 10.0 0.00 0.04 0.04 93
20260507203625 59 180 6.0 10.0 0.00 0.04 0.04 93
20260507203113 58 40 6.0 10.0 0.00 0.04 0.04 93 1013.6
20260507202704 59 67 8.0 11.0 0.00 0.04 0.04 93
20260507201804 59 67 8.0 11.0 0.00 0.04 0.04 93
20260507201516 58 19 7.0 11.0 0.00 0.04 0.04 93 1013.3
20260507200904 59 315 8.0 11.0 0.00 0.04 0.04 93
20260507200005 59 202 6.0 11.0 0.00 0.04 0.04 93
20260507195426 59 202 6.0 11.0 0.00 0.04 0.04 93
20260507194558 59 25 6.0 11.0 0.00 0.04 0.04 93 1012.9
20260507194504 59 315 6.0 12.0 0.01 0.04 0.04 93
20260507193605 59 315 6.0 12.0 0.01 0.04 0.04 93
20260507193018 59 30 7.0 12.0 0.01 0.04 0.04 93 1012.7
20260507192706 59 135 10.0 12.0 0.01 0.04 0.04 93
20260507191804 59 135 10.0 12.0 0.01 0.04 0.04 93
20260507191536 59 22 9.0 12.0 0.01 0.04 0.04 93 1012.7
20260507190904 59 180 8.0 11.0 0.01 0.04 0.04 93
20260507190026 60 225 8.0 11.0 0.01 0.04 0.04 93
20260507190013 59 24 7.0 11.0 0.01 0.04 0.04 93 1012.5
20260507185405 60 225 8.0 11.0 0.01 0.04 0.04 93
20260507184610 59 26 8.0 11.0 0.01 0.04 0.04 93 1012.5
20260507184504 60 22 5.0 13.0 0.00 0.03 0.03 92
20260507183625 60 22 5.0 13.0 0.00 0.03 0.03 92
20260507183053 59 17 7.0 13.0 0.00 0.03 0.03 92 1012.3
20260507182725 60 247 10.0 11.0 0.00 0.03 0.03 92
20260507181805 60 247 10.0 11.0 0.00 0.03 0.03 92
20260507181533 60 11 8.0 11.0 0.00 0.03 0.03 92 1012.1
20260507180904 60 22 5.0 11.0 0.00 0.03 0.03 92
20260507180011 60 49 6.0 11.0 0.00 0.03 0.03 92 1012.0
20260507180004 60 135 9.0 13.0 0.00 0.03 0.03 92
20260507175405 60 135 9.0 13.0 0.00 0.03 0.03 92
20260507174607 60 38 7.0 13.0 0.00 0.03 0.03 92 1011.9
20260507174504 60 292 5.0 11.0 0.00 0.03 0.03 92
20260507173604 60 292 5.0 11.0 0.00 0.03 0.03 92
20260507173120 60 77 6.0 11.0 0.00 0.03 0.03 92 1011.8
20260507172704 60 360 4.0 10.0 0.00 0.03 0.03 91
20260507171804 60 360 4.0 10.0 0.00 0.03 0.03 91
20260507171524 60 48 6.0 10.0 0.00 0.03 0.03 91 1011.8
20260507170904 61 157 11.0 12.0 0.00 0.03 0.03 91
20260507170104 60 39 7.0 12.0 0.00 0.03 0.03 91 1011.7
20260507170005 61 157 6.0 10.0 0.02 0.03 0.03 91
20260507165404 61 157 6.0 10.0 0.02 0.03 0.03 91
20260507164543 60 55 5.0 10.0 0.02 0.03 0.03 91 1011.8
20260507164525 61 337 4.0 11.0 0.03 0.03 0.03 91
20260507163605 61 337 4.0 11.0 0.03 0.03 0.03 91
20260507163016 61 47 5.0 11.0 0.03 0.03 0.03 91 1011.9
20260507161805 61 45 6.0 13.0 0.03 0.03 0.03 90
20260507161509 60 50 5.0 13.0 0.03 0.03 0.03 90 1012.1
20260507160904 61 315 9.0 14.0 0.03 0.03 0.03 89
20260507160005 61 337 4.0 11.0 0.02 0.02 0.02 87
20260507155405 61 337 4.0 11.0 0.02 0.02 0.02 87
20260507154528 60 47 5.0 11.0 0.02 0.02 0.02 87 1012.0
20260507154526 62 157 7.0 16.0 0.00 0.00 0.00 85
20260507153606 62 157 7.0 16.0 0.00 0.00 0.00 85
20260507153009 62 39 8.0 16.0 0.00 0.00 0.00 85 1012.0
20260507152726 63 315 8.0 16.0 0.00 0.00 0.00 83
20260507151804 63 315 8.0 16.0 0.00 0.00 0.00 83
20260507151617 63 78 9.0 16.0 0.00 0.00 0.00 83 1012.2
20260507150904 64 22 6.0 15.0 0.00 0.00 0.00 82
20260507150051 64 49 9.0 15.0 0.00 0.00 0.00 82 1012.1
20260507150026 64 67 11.0 16.0 0.00 0.00 0.00 81
20260507145404 64 67 11.0 16.0 0.00 0.00 0.00 81
20260507144523 63 83 10.0 16.0 0.00 0.00 0.00 81 1012.1
20260507144505 64 202 8.0 16.0 0.00 0.00 0.00 81
20260507143605 64 202 8.0 16.0 0.00 0.00 0.00 81
20260507143006 63 89 8.0 16.0 0.00 0.00 0.00 81 1012.3
20260507142704 64 315 7.0 15.0 0.00 0.00 0.00 82
20260507141804 64 315 7.0 15.0 0.00 0.00 0.00 82
20260507141612 64 94 10.0 15.0 0.00 0.00 0.00 82 1012.4
20260507140904 64 112 6.0 14.0 0.00 0.00 0.00 83
20260507140051 64 53 8.0 14.0 0.00 0.00 0.00 83 1012.5
20260507140005 64 157 11.0 17.0 0.00 0.00 0.00 83
20260507135426 64 157 11.0 17.0 0.00 0.00 0.00 83
20260507134527 64 292 9.0 16.0 0.00 0.00 0.00 83
20260507134522 64 55 11.0 17.0 0.00 0.00 0.00 83 1012.7
20260507133626 64 292 9.0 16.0 0.00 0.00 0.00 83
20260507133005 64 29 10.0 16.0 0.00 0.00 0.00 83 1012.7
20260507132704 65 270 12.0 18.0 0.00 0.00 0.00 80
20260507131826 65 270 12.0 18.0 0.00 0.00 0.00 80
20260507131608 65 92 10.0 18.0 0.00 0.00 0.00 80 1012.6
20260507130905 67 225 15.0 21.0 0.00 0.00 0.00 74
20260507130059 66 90 11.0 21.0 0.00 0.00 0.00 74 1012.8
20260507130005 68 67 15.0 20.0 0.00 0.00 0.00 71
20260507125426 68 67 15.0 20.0 0.00 0.00 0.00 71
20260507124519 67 67 12.0 20.0 0.00 0.00 0.00 71 1012.7
20260507124505 68 112 14.0 20.0 0.00 0.00 0.00 71
20260507123605 68 112 14.0 20.0 0.00 0.00 0.00 71
20260507123003 68 69 11.0 20.0 0.00 0.00 0.00 71 1012.7
20260507122705 68 157 13.0 21.0 0.00 0.00 0.00 71
20260507121805 68 157 13.0 21.0 0.00 0.00 0.00 71
20260507121605 68 71 13.0 21.0 0.00 0.00 0.00 71 1012.8
20260507120904 68 45 14.0 20.0 0.00 0.00 0.00 70
20260507120047 68 66 11.0 20.0 0.00 0.00 0.00 70 1013.0
20260507120005 69 202 7.0 17.0 0.00 0.00 0.00 69
20260507115406 69 202 7.0 17.0 0.00 0.00 0.00 69
20260507114513 69 89 10.0 17.0 0.00 0.00 0.00 69 1013.2
20260507114505 70 270 12.0 16.0 0.00 0.00 0.00 66
20260507113605 70 270 12.0 16.0 0.00 0.00 0.00 66
20260507113108 70 76 10.0 16.0 0.00 0.00 0.00 66 1013.3
20260507112705 71 180 13.0 19.0 0.00 0.00 0.00 66
20260507111825 71 180 13.0 19.0 0.00 0.00 0.00 66
20260507111547 71 88 12.0 19.0 0.00 0.00 0.00 66 1013.4
20260507110905 69 247 13.0 21.0 0.00 0.00 0.00 69
20260507110059 69 75 13.0 21.0 0.00 0.00 0.00 69 1013.6
20260507110005 69 90 6.0 19.0 0.00 0.00 0.00 69
20260507105405 69 90 6.0 19.0 0.00 0.00 0.00 69
20260507104532 69 52 10.0 19.0 0.00 0.00 0.00 69 1013.6
20260507104505 69 67 13.0 20.0 0.00 0.00 0.00 70
20260507103605 69 67 13.0 20.0 0.00 0.00 0.00 70
20260507103005 69 51 13.0 20.0 0.00 0.00 0.00 70 1013.6
20260507102704 70 315 15.0 20.0 0.00 0.00 0.00 68
20260507101805 70 315 15.0 20.0 0.00 0.00 0.00 68
20260507101608 70 46 11.0 20.0 0.00 0.00 0.00 68 1013.4